Long Beach, CA

2:03 AM PDT on July 21, 2017 (GMT -0700)
Long Beach

Weather History for KLGB - November, 2012

Change the Weather History Date:

Sunday, November 25, 2012

  Actual Average Record
Temperature  
Mean Temperature 60 °F 59 °F  
Max Temperature 63 °F 70 °F 97 °F (1977)
Min Temperature 57 °F 48 °F 38 °F (1973)
Degree Days  
Heating Degree Days 5 6  
Month to date heating degree days 59 94  
Since 1 July heating degree days 60 115  
Cooling Degree Days 0 0  
Month to date cooling degree days 30 19  
Year to date cooling degree days 1383 1123  
Growing Degree Days 10 (Base 50)    
Moisture  
Dew Point 55 °F    
Average Humidity 86    
Maximum Humidity 100    
Minimum Humidity 72    
Precipitation  
Precipitation 0.00 in 0.05 in 1.09 in (1985)
Month to date precipitation 0.29 0.78  
Year to date precipitation 5.06 10.09  
Since 1 July precipitation 0.65  
Sea Level Pressure  
Sea Level Pressure 29.94 in    
Wind  
Wind Speed 4 mph (SE)    
Max Wind Speed 8 mph    
Max Gust Speed 10 mph    
Visibility 5 miles    
Events Fog    
T = Trace of Precipitation, MM = Missing Value Source: NWS Daily Summary

Daily Weather History Graph

Daily Weather History Graph

Search for Another Location

Airport or City:

Trip Planner

Search our weather history database for the weather conditions in past years. The results will help you decide how hot, cold, wet, or windy it might be!

Date:

Astronomy

Nov. 25, 2012 Rise Set
Actual Time 6:34 AM PST 4:44 PM PST
Civil Twilight 6:07 AM PST 5:11 PM PST
Nautical Twilight 5:36 AM PST 5:42 PM PST
Astronomical Twilight 5:06 AM PST 6:12 PM PST
Moon 3:00 PM PST (11/25) 3:58 AM PST (11/25)
Length of Visible Light 11h 04m
Length of Day
10h 10m
Waxing Gibbous, 93% of the Moon is Illuminated
Nov 25
Waxing Gibbous
Nov 28
Full
Dec 6
Last Quarter
Dec 13
New
Dec 19
First Quarter

Hourly Weather History & Observations

Time (PST) Temp. Dew Point Humidity Pressure Visibility Wind Dir Wind Speed Gust Speed Precip Events Conditions
12:11 AM 57.2 °F 53.6 °F 88% 29.94 in 1.8 mi ENE 3.5 mph - N/A   Partly Cloudy
12:13 AM 57.2 °F 55.4 °F 94% 29.94 in 0.8 mi East 4.6 mph - N/A   Mist
12:22 AM 57.2 °F 55.4 °F 94% 29.94 in 0.2 mi SE 3.5 mph - N/A Fog Fog
12:53 AM 57.9 °F 57.0 °F 97% 29.94 in 0.2 mi ESE 3.5 mph - N/A Fog Fog
1:53 AM 59.0 °F 57.9 °F 96% 29.93 in 0.2 mi East 3.5 mph - N/A Fog Fog
2:18 AM 59.0 °F 57.2 °F 94% 29.92 in 0.5 mi Calm Calm - N/A Fog Fog
2:32 AM 59.0 °F 57.2 °F 94% 29.92 in 1.2 mi ESE 3.5 mph - N/A   Overcast
2:35 AM 59.0 °F 57.2 °F 94% 29.92 in 2.0 mi ESE 3.5 mph - N/A   Overcast
2:44 AM 59.0 °F 57.2 °F 94% 29.92 in 4.0 mi ESE 3.5 mph - N/A   Overcast
2:53 AM 59.0 °F 57.9 °F 96% 29.92 in 4.0 mi ESE 3.5 mph - N/A   Overcast
3:53 AM 59.0 °F 57.9 °F 96% 29.92 in 5.0 mi SSW 3.5 mph - N/A   Overcast
4:39 AM 57.2 °F 55.4 °F 94% 29.93 in 1.8 mi SSE 4.6 mph - N/A   Overcast
4:44 AM 57.2 °F 55.4 °F 94% 29.93 in 0.8 mi SSE 3.5 mph - N/A   Overcast
4:53 AM 57.9 °F 55.9 °F 93% 29.93 in 0.5 mi SSE 4.6 mph - N/A Fog Fog
5:10 AM 57.2 °F 57.2 °F 100% 29.93 in 1.5 mi SE 3.5 mph - N/A   Overcast
5:15 AM 57.2 °F 55.4 °F 94% 29.93 in 3.0 mi South 3.5 mph - N/A   Overcast
5:53 AM 57.9 °F 55.9 °F 93% 29.94 in 3.0 mi SE 4.6 mph - N/A   Overcast
6:44 AM 57.2 °F 55.4 °F 94% 29.95 in 0.5 mi ESE 4.6 mph - N/A Fog Fog
6:53 AM 57.9 °F 55.0 °F 90% 29.95 in 0.2 mi East 4.6 mph - N/A Fog Fog
7:00 AM 57.2 °F 55.4 °F 94% 29.95 in 1.0 mi East 4.6 mph - N/A   Overcast
7:31 AM 57.2 °F 55.4 °F 94% 29.96 in 2.0 mi East 4.6 mph - N/A   Overcast
7:40 AM 57.2 °F 55.4 °F 94% 29.96 in 1.8 mi ENE 3.5 mph - N/A   Overcast
7:51 AM 59.0 °F 55.4 °F 88% 29.96 in 2.5 mi East 3.5 mph - N/A   Overcast
7:53 AM 59.0 °F 55.9 °F 90% 29.96 in 2.5 mi East 4.6 mph - N/A   Overcast
8:03 AM 59.0 °F 55.4 °F 88% 29.96 in 2.5 mi SE 4.6 mph - N/A   Overcast
8:17 AM 59.0 °F 55.4 °F 88% 29.97 in 2.5 mi ESE 5.8 mph - N/A   Overcast
8:53 AM 60.1 °F 55.9 °F 86% 29.97 in 2.5 mi East 4.6 mph - N/A   Overcast
9:00 AM 60.8 °F 55.4 °F 82% 29.97 in 4.0 mi ESE 4.6 mph - N/A   Overcast
9:53 AM 60.1 °F 55.0 °F 83% 29.97 in 5.0 mi Calm Calm - N/A   Haze
10:41 AM 60.8 °F 55.4 °F 82% 29.97 in 6.0 mi South 4.6 mph - N/A   Haze
10:53 AM 61.0 °F 55.0 °F 81% 29.96 in 6.0 mi SSW 4.6 mph - N/A   Haze
11:53 AM 62.1 °F 55.0 °F 78% 29.94 in 7.0 mi Variable 3.5 mph - N/A   Overcast
12:51 PM 62.6 °F 55.4 °F 77% 29.92 in 9.0 mi Variable 5.8 mph - N/A   Scattered Clouds
12:53 PM 63.0 °F 55.0 °F 75% 29.92 in 9.0 mi SSE 4.6 mph - N/A   Scattered Clouds
1:53 PM 63.0 °F 54.0 °F 72% 29.90 in 10.0 mi South 5.8 mph - N/A   Scattered Clouds
2:53 PM 62.1 °F 54.0 °F 75% 29.89 in 10.0 mi Variable 5.8 mph - N/A   Clear
3:53 PM 61.0 °F 54.0 °F 78% 29.89 in 10.0 mi South 5.8 mph - N/A   Scattered Clouds
3:55 PM 60.8 °F 53.6 °F 77% 29.89 in 10.0 mi SSE 4.6 mph - N/A   Scattered Clouds
4:53 PM 60.1 °F 54.0 °F 80% 29.90 in 10.0 mi SSW 4.6 mph - N/A   Scattered Clouds
5:00 PM 60.8 °F 53.6 °F 77% 29.90 in 10.0 mi South 3.5 mph - N/A   Overcast
5:30 PM 60.8 °F 53.6 °F 77% 29.90 in 10.0 mi South 4.6 mph - N/A   Partly Cloudy
5:53 PM 59.0 °F 54.0 °F 83% 29.91 in 10.0 mi South 3.5 mph - N/A   Scattered Clouds
6:00 PM 60.8 °F 53.6 °F 77% 29.91 in 10.0 mi Variable 3.5 mph - N/A   Mostly Cloudy
6:53 PM 60.1 °F 55.0 °F 83% 29.92 in 10.0 mi South 3.5 mph - N/A   Overcast
7:53 PM 60.1 °F 55.0 °F 83% 29.95 in 10.0 mi Calm Calm - N/A   Overcast
8:53 PM 60.1 °F 55.0 °F 83% 29.96 in 10.0 mi SE 4.6 mph - N/A   Overcast
9:53 PM 60.1 °F 54.0 °F 80% 29.96 in 7.0 mi SE 6.9 mph - N/A   Overcast
10:53 PM 59.0 °F 54.0 °F 83% 29.97 in 7.0 mi ESE 5.8 mph - N/A   Overcast
11:50 PM 59.0 °F 53.6 °F 82% 29.98 in 8.0 mi SE 5.8 mph - N/A   Overcast
11:53 PM 59.0 °F 54.0 °F 83% 29.98 in 8.0 mi SE 6.9 mph - N/A   Overcast